Satellite-Ground Cal/Val Region Overpasses Predictions

Prediction of Satellite NPP Overpassing Cal/Val Region: PacNW

Region Location: (Latitude: 10.00, Longitude: 139.50) to (Latitude: 22.70, Longitude: 165.60).

Table of predicted overpasses for the next 14.0 days since TLE Epoch: 7/6/2013
Interval Starting Time Starting Location Ending Time Ending Location
1 07/06/2013 14:58:04 ( 22.69, 160.32) 07/06/2013 15:01:40 ( 10.01, 157.30)
2 07/07/2013 02:09:50 ( 19.51, 165.60) 07/07/2013 02:10:44 ( 22.68, 164.81)
3 07/07/2013 03:48:38 ( 10.01, 142.46) 07/07/2013 03:52:09 ( 22.39, 139.51)
4 07/07/2013 14:39:02 ( 22.64, 165.07) 07/07/2013 14:42:37 ( 10.02, 162.07)
5 07/07/2013 16:20:31 ( 22.70, 139.71) 07/07/2013 16:20:45 ( 21.87, 139.51)
6 07/08/2013 03:29:37 ( 10.05, 147.21) 07/08/2013 03:33:12 ( 22.68, 144.20)
7 07/08/2013 16:01:30 ( 22.65, 144.46) 07/08/2013 16:05:05 ( 10.03, 141.45)
8 07/09/2013 03:10:34 ( 10.04, 151.98) 07/09/2013 03:14:09 ( 22.66, 148.97)
9 07/09/2013 15:42:27 ( 22.66, 149.23) 07/09/2013 15:46:02 ( 10.04, 146.22)
10 07/10/2013 02:51:32 ( 10.03, 156.74) 07/10/2013 02:55:07 ( 22.65, 153.73)
11 07/10/2013 15:23:25 ( 22.67, 153.99) 07/10/2013 15:27:00 ( 10.06, 150.98)
12 07/11/2013 02:32:29 ( 10.02, 161.50) 07/11/2013 02:36:05 ( 22.70, 158.48)
13 07/11/2013 15:04:22 ( 22.69, 158.76) 07/11/2013 15:07:58 ( 10.01, 155.74)
14 07/12/2013 02:14:17 ( 12.95, 165.59) 07/12/2013 02:17:03 ( 22.69, 163.25)
15 07/12/2013 03:54:57 ( 10.02, 140.89) 07/12/2013 03:56:39 ( 16.01, 139.50)
16 07/12/2013 14:45:20 ( 22.70, 163.52) 07/12/2013 14:48:56 ( 10.02, 160.50)
17 07/13/2013 03:35:55 ( 10.00, 145.66) 07/13/2013 03:39:31 ( 22.69, 142.64)
18 07/13/2013 14:29:29 ( 11.44, 165.59) 07/13/2013 14:29:53 ( 10.03, 165.26)
19 07/13/2013 16:07:48 ( 22.64, 142.90) 07/13/2013 16:11:23 ( 10.02, 139.89)
20 07/14/2013 03:16:53 ( 10.05, 150.41) 07/14/2013 03:20:28 ( 22.68, 147.40)
21 07/14/2013 15:48:46 ( 22.65, 147.66) 07/14/2013 15:52:21 ( 10.03, 144.65)
22 07/15/2013 02:57:51 ( 10.04, 155.17) 07/15/2013 03:01:26 ( 22.67, 152.16)
23 07/15/2013 15:29:43 ( 22.66, 152.42) 07/15/2013 15:33:18 ( 10.04, 149.42)
24 07/16/2013 02:38:48 ( 10.04, 159.94) 07/16/2013 02:42:23 ( 22.66, 156.93)
25 07/16/2013 15:10:41 ( 22.67, 157.19) 07/16/2013 15:14:16 ( 10.05, 154.18)
26 07/17/2013 02:19:46 ( 10.03, 164.70) 07/17/2013 02:23:21 ( 22.65, 161.69)
27 07/17/2013 14:51:38 ( 22.68, 161.95) 07/17/2013 14:55:14 ( 10.00, 158.93)
28 07/18/2013 03:42:13 ( 10.03, 144.09) 07/18/2013 03:45:48 ( 22.65, 141.08)
29 07/18/2013 14:33:54 ( 18.12, 165.59) 07/18/2013 14:36:12 ( 10.01, 163.70)
30 07/18/2013 16:14:06 ( 22.68, 141.34) 07/18/2013 16:16:15 ( 15.11, 139.51)
31 07/19/2013 03:23:11 ( 10.02, 148.85) 07/19/2013 03:26:46 ( 22.64, 145.85)
32 07/19/2013 15:55:03 ( 22.69, 146.11) 07/19/2013 15:58:39 ( 10.01, 143.08)


NCC Satellite Cal/Val Overpasses Prediction Service
